Погода в Брянске

Погода в Брянске : погода сейчас, прогноз погоды и архив. Всё, что Вы хотите узнать о погоде в Брянске!

Поиск расширенной информации на нашем сайте:

Другие новости

Новости СМИ2

Главная страница сайта

Новости сайта

03.07.2017

Напоминаем, что на нашем специализированном сайте Метеоцентр.Азия вы можете получить высокодетализированные автоматические прогнозы погоды по пунктам России, СНГ и мира в авиационном формате (включающие направление и скорость ветра, видимость, явления погоды, количество и форму облачности, нижнюю и верхнюю границу облачности).

Рекомендуем: Детальное описание иайдо харьков на нашем сайте.

Погода в Брянске - сегодня

Время (UTC), дата Ветер
(°,м/с) 
Видим.   Явления Облачность Т
(°С)
Тd
(°С)
f(%) Тe
(°С)
Pmin
(гПа)
dP
(гПа)
Po
(мм)
O2
(г/м3)
Тmin Tmax R s Состояние
почвы
18 18.01.18 130 (ЮВ) 4000 м  слаб. снег  10/10 360 м 
[Frnb|Ns]
-1.1 -1.5 97 -2  1006.6  -0.3  735  297    -1.1     
21 18.01.18 130 (ЮВ) 4000 м  слаб. снег  10/10 420 м 
[Frnb|Ns]
-1.8 -2.6 94 -4  1007.4  0.8  735  298           
00 19.01.18 140 (ЮВ) 4{10}  4000 м  слаб. снег  10/10 400 м 
[Frnb|Ns]
-2.7 -3 98 -6  1007.8  0.3  735  300           
03 19.01.18 140 (ЮВ) 4000 м  дымка{снег}  10/10 420 м 
[St]
-2.3 -3.8 89 -5  1006.5  -1.3  734  299  -3.5       
06 19.01.18 140 (ЮВ) 3{11}  14000 м  {снег}  10/10 600 м 
[Sc]
-4 -7 80 -6  1007.1  0.5  735  301  -4    0.9  13  равномерный
сухой снег
100% 
09 19.01.18 120 (ЮВ) 4{11}  14000 м    10/10 660 м 
[Sc]
-5.8 -8.4 82 -9  1007.6  0.3  735  303           
12 19.01.18 130 (ЮВ) 1400 м  сильн. снег  10/10 210 м 
[Frnb|Ns]
-6.6 -7.4 94 -9  1007.9  0.3  735  304           
15 19.01.18 130 (ЮВ) 4000 м  слаб. снег  10/10 240 м 
[Frnb|Ns]
-6.8 -7.6 94 -9  1008.5  0.5  736  305         
18 19.01.18 130 (ЮВ) 4000 м  в посл. час снег  10/10 420 м 
[St]
-6.5 -7.7 91 -9  1009  0.6  736  305    -4     
21 19.01.18 130 (ЮВ) 4000 м  дымка{снег}  10/10 360 м 
[St]
-6.3 -7.1 94 -9  1009.1  0.1  736  304           
00 20.01.18 120 (ЮВ) 4000 м  дымка{снег}  10/10 330 м 
[St]
-6.1 -6.9 94 -8  1008.7  -0.4  736  304           
03 20.01.18 120 (ЮВ) 4000 м  слаб. снег  10/10 420 м 
[Frnb|Ns]
-5.8 -6.5 95 -8  1008  -0.6  735  303  -6.8    0.8     
06 20.01.18 120 (ЮВ) 3000 м  дымка{снег}  10/10 270 м 
[St]
-5.2 -5.5 98 -7  1007.7  -0.3  735  303  -6.8    0.3  16  равномерный
сухой снег
100% 
09 20.01.18 150 (ЮВ) 3000 м  снег  10/10 270 м 
[Frnb|Ns]
-3.6 -4.1 96 -5  1007.8  0.2  735  301           
12 20.01.18 200 (Ю) 3500 м  слаб. снег  10/10 300 м 
[Frnb|Ns]
-1.3 -2.1 94 -1  1007.6  735  298           
15 20.01.18 210 (ЮЗ) 2000 м  слаб. снег  10/10 330 м 
[Frnb|Ns]
-1.9 -2.5 96 -3  1008.3  0.7  736  299         
18 20.01.18 210 (ЮЗ) 4000 м  слаб. снег  10/10 360 м 
[Frnb|Ns]
-2.5 -3.4 94 -4  1008.8  0.4  736  300    -1.2     
21 20.01.18 210 (ЮЗ) 4000 м  дымка{снег}  10/10 720 м 
[Sc]
-2.8 -4.4 89 -4  1009.6  0.8  737  300           
00 21.01.18 190 (Ю) 4000 м  дымка{снег}  10/10 420 м 
[St]
-3.2 -4.6 90 -3  1009.4  -0.3  737  301           
03 21.01.18 190 (Ю) 4000 м  дымка  10/10 420 м 
[St]
-3.6 -4.7 92 -3  1009.7  0.3  737  301  -3.7    0.4     
06 21.01.18 200 (Ю) 8000 м  дымка  10/10 400 м 
[St]
-4.1 -5 93 -4  1009.9  0.2  737  302  -4.1      16  равномерный
сухой снег
100% 
09 21.01.18 240 (ЮЗ) 6000 м  слаб. снег  10/10 450 м 
[Frnb|Ns]
-3.4 -4.6 91 -3  1010.1  0.2  737  301           
12 21.01.18 250 (З) 6000 м  слаб. снег  10/10 400 м 
[Frnb|Ns]
-3 -4.3 91 -4  1010.6  0.5  737  301           
15 21.01.18 250 (З) 4000 м  в посл. час снег  10/10 450 м 
[St]
-3.3 -4.7 90 -4  1011.8  1.1  738  302      0.2     
18 21.01.18 290 (З) 4000 м  слаб. снег  10/10 400 м 
[Frnb|Ns]
-3.8 -5 91 -7  1012.8  739  303    -3  0.4     
Время (UTC), дата Ветер
(°,м/с) 
Видим.   Явления Облачность Т
(°С)
Тd
(°С)
f(%) Тe
(°С)
Pmin
(гПа)
dP
(гПа)
Po
(мм)
O2
(г/м3)
Тmin Tmax R s Состояние
почвы

Для получения пояснительной информации подведите курсор к названию столбца.

ПОГОДА в Брянске - архив

Всё, что Вы хотите узнать о погоде в Брянске - удобно и подробно!

Выберите нужную дату (начиная с 1 января 2015* года) и нажмите кнопку "Найти".
Будут отображены архивные сводки погоды по пункту Брянск, начиная с указанной даты.


Отображать данные в формате CSV (для использования в таблицах Excel)


Внимание! Наш архив погоды предназначен исключительно для личного некоммерческого использования в познавательных целях. Если Вам необходимы официальные справки о состоянии погоды (для производственных, юридических, коммерческих и т.п. целей), обращайтесь в органы Росгидромета.

*Примечание: данная дата относится к архиву по метеостанциям СССР (Россия, СНГ, Балтия).
Архив по метеостанциям Зарубежной Европы и Азии (кроме Китая) хранится 10 дней, по другим регионам земного шара (Китай, Африка, Америка, Австралия, Океания) - 1 день.

Брянск - район местоположения метеостанции


Название, широта, долгота, высота метеостанции:
Брянск (город) 53.2°ш. 34.3°д. 216 м над ур. моря [Российская Федерация]

Дополнительная информация

В oтличие oт бoльшинства пoгoдных сайтoв мы публикуем пoдрoбную метеoинфoрмацию в детальнoм прoфессиoнальнoм фoрмате.

Характеристики температуры и влажнoсти вoздуха измеряются на высoте 2 м в тени вдали oт зданий и деревьев.
Скoрoсть ветра измеряется на высoте 10 м (на урoвне рoста челoвека скoрoсть ветра ниже в 1.5-2 раза). Если метеoстанция нахoдится в гoрoде или в лесу, тo скoрoсть ветра занижена на 2-4 м/с пo сравнению с oткрытым местoм. Скoрoсть ветра над акватoриями крупных рек и oзёр, а также на вершинах хoлмoв на 2-5 м/с выше, чем в oбычных услoвиях.
Атмoсфернoе давление в разных тoчках местнoсти мoжет значительнo oтличаться oт давления на метеoстанции, в зависимoсти oт услoвий рельефа (при пoдъёме на 10 м давление пoнижается примернo на 1 мм рт.ст.).